FW1981 Weather Reports


Display with metric or nautical units.
time (UTC)temp
F
wind
direction
speed
MPH
gust
MPH
rain 1hr
in
rain 24hr
in
rain mn
in
humidity
%
barometer
mb
20260905004521 64 240 0.0 1.0 0.00 3.90 3.90 95 1003.2
20260905004020 64 240 0.0 1.0 0.00 3.90 3.90 95 1003.5
20260905003521 64 240 0.0 1.0 0.00 3.90 3.90 95 1003.4
20260905003026 64 240 0.0 0.0 0.00 3.90 3.90 95 1003.4
20260905002521 64 240 0.0 0.0 0.00 3.90 3.90 95 1003.6
20260905002033 64 240 0.0 0.0 0.00 3.90 3.90 95 1003.6
20260905001521 64 240 0.0 0.0 0.00 3.90 3.90 95 1003.6
20260905001032 64 240 0.0 1.0 0.00 3.90 3.90 95 1003.5
20260905000521 64 240 0.0 1.0 0.00 3.90 3.90 95 1003.6
20260905000020 65 240 0.0 2.0 0.00 3.90 3.90 95 1003.7
20260904235521 65 240 0.0 2.0 0.00 3.90 3.90 95 1003.7
20260904235021 65 225 0.0 2.0 0.00 3.90 3.90 95 1003.7
20260904234531 65 225 0.0 1.0 0.00 3.90 3.90 95 1003.7
20260904234021 65 231 0.0 4.0 0.00 3.90 3.90 95 1003.7
20260904233520 65 23 0.0 3.0 0.00 3.90 3.90 95 1003.7
20260904233020 65 255 0.0 3.0 0.00 3.90 3.90 95 1003.7
20260904232518 65 271 0.0 3.0 0.00 3.90 3.90 95 1003.7
20260904231520 65 296 0.0 3.0 0.00 3.90 3.90 95 1003.7
20260904231029 65 224 1.0 2.0 0.00 3.90 3.90 95 1003.7
20260904230524 65 229 0.0 4.0 0.00 3.90 3.90 95 1003.6
20260904230018 65 327 0.0 3.0 0.00 3.90 3.90 95 1003.7
20260904225519 65 229 1.0 3.0 0.00 3.91 3.90 95 1003.7
20260904225018 65 325 1.0 5.0 0.00 3.91 3.90 95 1003.6
20260904224518 65 306 0.0 6.0 0.00 3.91 3.90 95 1003.7
20260904224018 65 146 1.0 6.0 0.00 3.91 3.90 95 1003.7
20260904223519 65 172 2.0 6.0 0.00 3.91 3.90 95 1003.7
20260904223019 65 212 1.0 3.0 0.00 3.91 3.90 95 1003.6
20260904222529 65 285 1.0 4.0 0.00 3.91 3.90 95 1003.7
20260904222023 65 47 1.0 4.0 0.01 3.91 3.90 95 1003.7
20260904221520 65 273 1.0 6.0 0.01 3.91 3.90 95 1003.7
20260904221019 65 62 2.0 6.0 0.01 3.91 3.90 95 1003.7
20260904220529 65 133 1.0 10.0 0.01 3.91 3.90 95 1003.8
20260904220019 65 137 2.0 10.0 0.01 3.91 3.90 95 1003.7
20260904215519 65 283 1.0 4.0 0.01 3.91 3.90 95 1003.9
20260904215019 66 236 1.0 4.0 0.01 3.91 3.90 95 1003.9
20260904214518 66 279 1.0 6.0 0.01 3.91 3.90 95 1004.0
20260904214029 66 31 1.0 6.0 0.01 3.91 3.90 95 1003.9
20260904213519 66 32 2.0 10.0 0.01 3.91 3.90 95 1003.9
20260904213019 67 15 2.0 10.0 0.01 3.91 3.90 95 1004.0
20260904212519 67 284 3.0 8.0 0.01 3.91 3.90 95 1004.0
20260904212019 67 256 2.0 7.0 0.00 3.90 3.89 95 1004.0
20260904211520 68 162 1.0 6.0 0.00 3.90 3.89 95 1004.1
20260904211019 68 293 1.0 6.0 0.00 3.90 3.89 95 1004.2
20260904210519 68 229 1.0 5.0 0.00 3.90 3.89 95 1004.2
20260904210019 67 250 2.0 5.0 0.00 3.90 3.89 95 1004.3
20260904205520 67 229 2.0 5.0 0.00 3.90 3.89 95 1004.3
20260904205020 68 254 1.0 4.0 0.00 3.90 3.89 95 1004.4
20260904204519 68 209 1.0 7.0 0.00 3.90 3.89 95 1004.6
20260904204019 67 222 2.0 7.0 0.00 3.90 3.89 95 1004.7
20260904203531 67 215 2.0 4.0 0.00 3.90 3.89 95 1004.7
20260904203018 67 98 1.0 4.0 0.02 3.90 3.89 95 1004.8
20260904202519 67 205 2.0 7.0 0.03 3.90 3.89 95 1004.9
20260904202019 67 209 2.0 9.0 0.03 3.90 3.89 95 1004.9
20260904201520 67 233 5.0 9.0 0.03 3.90 3.89 95 1004.8
20260904201019 67 249 4.0 8.0 0.03 3.90 3.89 95 1004.9
20260904200519 67 130 2.0 9.0 0.04 3.90 3.89 95 1005.0
20260904200030 66 232 2.0 9.0 0.04 3.90 3.89 95 1005.0
20260904195518 66 138 2.0 9.0 0.04 3.90 3.89 95 1005.1
20260904195019 66 191 6.0 9.0 0.05 3.90 3.89 95 1005.2
20260904194527 66 262 4.0 8.0 0.05 3.90 3.89 95 1005.2
20260904194027 66 146 4.0 9.0 0.05 3.90 3.89 95 1005.2
20260904193524 66 245 4.0 9.0 0.04 3.89 3.88 95 1005.3
20260904193023 66 178 6.0 12.0 0.03 3.88 3.87 95 1005.2
20260904192524 66 163 6.0 12.0 0.02 3.87 3.86 95 1005.1
20260904192023 66 174 5.0 10.0 0.02 3.87 3.86 95 1005.1
20260904191522 66 222 4.0 18.0 0.02 3.87 3.86 95 1005.1
20260904191021 66 134 8.0 18.0 0.02 3.86 3.85 95 1005.2
20260904190521 66 169 5.0 13.0 0.02 3.86 3.85 95 1005.3
20260904190022 66 139 4.0 13.0 0.02 3.86 3.85 95 1005.4
20260904185532 66 159 7.0 15.0 0.02 3.86 3.85 95 1005.4
20260904185021 66 160 7.0 19.0 0.02 3.85 3.84 95 1005.5
20260904184521 66 129 7.0 19.0 0.02 3.85 3.84 95 1005.4
20260904184021 66 177 7.0 16.0 0.03 3.85 3.84 95 1005.5
20260904183521 66 180 8.0 16.0 0.04 3.85 3.84 95 1005.4
20260904183021 66 169 8.0 15.0 0.04 3.85 3.84 95 1005.5
20260904182521 66 206 6.0 13.0 0.07 3.85 3.84 95 1005.7
20260904182021 66 188 6.0 17.0 0.07 3.85 3.84 95 1005.8
20260904181522 66 151 6.0 17.0 0.08 3.85 3.84 95 1005.8
20260904181021 66 184 7.0 17.0 0.07 3.84 3.83 95 1005.9
20260904180521 66 180 8.0 16.0 0.09 3.84 3.83 95 1005.9
20260904180022 67 219 7.0 15.0 0.10 3.84 3.83 95 1006.0
20260904175521 67 198 6.0 13.0 0.12 3.84 3.83 95 1006.1
20260904175021 67 169 5.0 11.0 0.13 3.83 3.82 95 1006.1
20260904174522 66 223 5.0 10.0 0.14 3.83 3.82 95 1006.2
20260904174021 66 175 5.0 10.0 0.15 3.82 3.81 95 1006.3
20260904173521 66 113 3.0 16.0 0.15 3.81 3.80 95 1006.3
20260904173032 66 137 6.0 16.0 0.16 3.81 3.80 95 1006.4
20260904172521 66 212 6.0 12.0 0.14 3.78 3.77 95 1006.7
20260904172021 66 120 6.0 13.0 0.15 3.78 3.77 95 1006.9
20260904171521 66 146 8.0 14.0 0.15 3.77 3.76 95 1007.0
20260904171032 66 155 8.0 19.0 0.16 3.76 3.75 95 1007.1
20260904170521 66 128 8.0 19.0 0.18 3.75 3.74 95 1007.1
20260904170033 66 146 8.0 19.0 0.19 3.73 3.72 95 1007.2
20260904165532 66 150 10.0 19.0 0.19 3.72 3.71 95 1007.1
20260904165022 66 142 9.0 16.0 0.22 3.69 3.68 95 1007.1
20260904164522 66 177 7.0 17.0 0.23 3.68 3.67 95 1007.2
20260904164021 66 202 6.0 19.0 0.22 3.66 3.65 95 1007.3
20260904163521 66 142 8.0 19.0 0.24 3.66 3.65 95 1007.1
20260904163021 66 146 6.0 17.0 0.25 3.65 3.64 95 1007.2
20260904162532 65 128 9.0 20.0 0.32 3.64 3.63 95 1007.2
20260904162021 66 150 11.0 20.0 0.40 3.63 3.62 95 1007.4
20260904161521 66 140 8.0 17.0 0.47 3.61 3.60 95 1007.4
20260904161026 66 134 10.0 26.0 0.58 3.60 3.59 95 1007.4
20260904160522 66 105 9.0 20.0 0.72 3.57 3.56 95 1007.3
20260904160022 66 144 11.0 20.0 0.77 3.54 3.53 95 1007.2
20260904155522 66 147 11.0 22.0 0.79 3.52 3.51 95 1007.4
20260904155022 66 133 11.0 22.0 0.81 3.46 3.45 95 1007.4
20260904154521 66 181 7.0 18.0 0.89 3.45 3.44 95 1007.5
20260904154019 66 144 8.0 18.0 0.95 3.43 3.42 95 1007.7
20260904153530 65 134 7.0 16.0 1.13 3.42 3.41 95 1007.9
20260904153019 65 120 8.0 16.0 1.24 3.40 3.39 95 1007.9
20260904152519 65 190 8.0 20.0 1.28 3.30 3.29 95 1008.2
20260904152030 65 143 12.0 20.0 1.30 3.21 3.20 95 1008.2
20260904151520 65 90 10.0 18.0 1.26 3.12 3.11 95 1008.5
20260904151019 65 127 9.0 18.0 1.17 3.01 3.00 94 1008.6
20260904150519 65 120 9.0 20.0 1.01 2.84 2.83 94 1008.6
20260904150031 65 124 11.0 20.0 0.96 2.77 2.76 94 1008.6
20260904145520 65 110 9.0 18.0 0.91 2.72 2.71 94 1008.6
20260904145020 65 110 9.0 18.0 0.84 2.64 2.63 94 1008.9
20260904144519 65 113 10.0 17.0 0.76 2.55 2.54 94 1009.0
20260904144020 65 96 9.0 15.0 0.68 2.47 2.46 94 1008.9
20260904143531 65 181 8.0 16.0 0.49 2.28 2.27 94 1009.1
20260904143020 65 150 9.0 20.0 0.36 2.14 2.13 94 1009.1
20260904142520 65 117 7.0 18.0 0.22 2.00 1.99 94 1009.4
20260904142020 65 135 7.0 17.0 0.12 1.90 1.89 94 1009.4
20260904141509 65 174 8.0 17.0 0.08 1.85 1.84 94 1009.5
20260904141016 65 143 9.0 17.0 0.11 1.84 1.83 94 1009.3
20260904140508 65 124 8.0 13.0 0.18 1.82 1.81 94 1009.3
20260904140028 65 124 9.0 15.0 0.21 1.81 1.80 94 1009.3
20260904135508 65 107 7.0 19.0 0.21 1.81 1.80 94 1009.2
20260904135026 65 133 10.0 19.0 0.21 1.80 1.79 94 1009.2
20260904134508 65 112 8.0 18.0 0.22 1.79 1.78 94 1009.4
20260904134016 65 106 9.0 22.0 0.22 1.79 1.78 95 1009.4
20260904133508 65 136 11.0 21.0 0.24 1.79 1.78 95 1009.6
20260904133015 65 174 10.0 21.0 0.25 1.78 1.77 95 1009.7
20260904132513 65 136 8.0 16.0 0.28 1.78 1.77 95 1009.8
20260904132015 65 159 9.0 16.0 0.35 1.78 1.77 95 1009.8
20260904131520 64 63 6.0 14.0 0.40 1.77 1.76 95 1009.9
20260904131016 64 141 5.0 14.0 0.36 1.72 1.71 95 1009.9
20260904130508 64 126 7.0 16.0 0.26 1.61 1.60 95 1010.1
20260904130017 64 117 9.0 16.0 0.26 1.60 1.59 95 1010.0
20260904125508 64 53 6.0 16.0 0.26 1.60 1.59 94 1010.1
20260904125016 64 154 7.0 15.0 0.25 1.58 1.57 94 1010.2
20260904124510 64 97 6.0 15.0 0.27 1.57 1.56 94 1010.1
20260904124016 64 87 5.0 13.0 0.28 1.57 1.56 94 1010.3
20260904123509 64 135 6.0 14.0 0.26 1.54 1.53 94 1010.4
20260904123016 64 74 7.0 14.0 0.27 1.53 1.52 94 1010.6
20260904122508 64 125 7.0 17.0 0.24 1.48 1.47 94 1010.6
20260904122015 64 106 8.0 17.0 0.26 1.41 1.40 94 1010.8
20260904121509 64 158 5.0 15.0 0.34 1.37 1.36 94 1010.9
20260904121027 64 108 9.0 19.0 0.37 1.36 1.35 94 1010.7
20260904120508 64 111 10.0 19.0 0.45 1.35 1.34 94 1010.9
20260904120016 64 124 12.0 19.0 0.50 1.34 1.33 94 1010.9
20260904115508 64 123 11.0 19.0 0.53 1.34 1.33 94 1011.0
20260904115016 64 74 9.0 16.0 0.55 1.33 1.32 94 1011.1
20260904114508 64 160 9.0 16.0 0.55 1.30 1.29 94 1011.2
20260904114027 64 127 7.0 16.0 0.57 1.29 1.28 94 1011.3
20260904113508 64 119 9.0 24.0 0.61 1.28 1.27 94 1011.3
20260904113027 64 127 12.0 24.0 0.64 1.26 1.25 93 1011.4
20260904112508 64 111 11.0 20.0 0.64 1.23 1.22 93 1011.6
20260904112016 64 98 12.0 20.0 0.55 1.12 1.11 93 1011.6
20260904111520 64 129 11.0 19.0 0.49 1.03 1.02 93 1011.7
20260904111021 64 106 8.0 14.0 0.46 0.97 0.96 93 1011.8
20260904110510 64 125 8.0 17.0 0.40 0.88 0.87 93 1011.9
20260904110017 64 146 7.0 13.0 0.39 0.84 0.83 93 1012.1
20260904105509 64 129 8.0 12.0 0.40 0.81 0.80 93 1012.3
20260904105027 64 214 6.0 12.0 0.39 0.77 0.76 93 1012.4
20260904104509 64 165 7.0 12.0 0.39 0.75 0.74 93 1012.3
20260904104016 64 159 6.0 12.0 0.38 0.71 0.70 93 1012.4
20260904103509 64 127 7.0 14.0 0.35 0.66 0.65 93 1012.4
20260904103016 64 139 6.0 16.0 0.33 0.62 0.61 92 1012.3
20260904102519 64 163 9.0 16.0 0.33 0.59 0.58 92 1012.5
20260904102016 64 155 5.0 10.0 0.33 0.56 0.55 92 1012.5
20260904101508 64 146 4.0 10.0 0.33 0.53 0.52 92 1012.8
20260904101016 64 213 5.0 12.0 0.33 0.50 0.49 92 1012.7
20260904100519 64 144 5.0 15.0 0.32 0.47 0.46 92 1012.5
20260904100016 64 148 7.0 15.0 0.32 0.44 0.43 92 1012.5
20260904095509 64 111 5.0 13.0 0.31 0.41 0.40 92 1012.6
20260904095028 64 150 8.0 14.0 0.29 0.38 0.37 91 1012.5
20260904094509 64 155 6.0 14.0 0.27 0.35 0.34 91 1012.8
20260904094016 64 125 5.0 13.0 0.25 0.33 0.32 91 1012.7
20260904093509 64 143 7.0 13.0 0.24 0.31 0.30 91 1012.7
20260904093027 64 155 7.0 13.0 0.22 0.29 0.28 91 1012.8
20260904092509 64 148 7.0 14.0 0.18 0.25 0.24 91 1012.8
20260904092016 64 168 6.0 14.0 0.16 0.23 0.22 91 1012.8
20260904091509 65 133 5.0 14.0 0.13 0.20 0.19 90 1012.9
20260904091017 65 150 7.0 12.0 0.10 0.17 0.16 90 1012.9
20260904090508 65 127 6.0 13.0 0.07 0.14 0.13 89 1012.7
20260904090016 65 143 7.0 13.0 0.05 0.12 0.11 89 1013.0
20260904085509 65 169 5.0 17.0 0.03 0.12 0.09 88 1013.1
20260904085016 65 164 9.0 17.0 0.02 0.11 0.08 88 1012.8
20260904084520 65 138 8.0 16.0 0.01 0.10 0.07 87 1012.7
20260904084016 65 262 7.0 15.0 0.01 0.10 0.07 86 1012.8
20260904083508 66 163 5.0 14.0 0.00 0.09 0.06 86 1013.1
20260904083017 66 155 6.0 14.0 0.00 0.09 0.06 85 1013.2
20260904082519 66 160 7.0 17.0 0.00 0.09 0.06 84 1013.4
20260904082017 66 172 8.0 17.0 0.00 0.09 0.06 84 1013.4
20260904081509 66 201 7.0 15.0 0.00 0.09 0.06 83 1013.5
20260904081016 66 212 6.0 16.0 0.00 0.09 0.06 84 1013.6
20260904080509 66 139 8.0 16.0 0.00 0.09 0.06 84 1013.7
20260904080017 66 139 9.0 16.0 0.00 0.09 0.06 84 1013.7
20260904075509 66 241 7.0 13.0 0.00 0.18 0.06 84 1013.8
20260904075016 66 169 5.0 13.0 0.00 0.18 0.06 84 1013.8
20260904074509 66 198 6.0 13.0 0.00 0.18 0.06 84 1013.8
20260904074027 66 191 8.0 13.0 0.00 0.18 0.06 85 1013.9
20260904073520 66 216 5.0 18.0 0.00 0.18 0.06 86 1013.9
20260904073016 66 130 8.0 18.0 0.00 0.18 0.06 86 1014.0
20260904072509 66 155 7.0 14.0 0.01 0.18 0.06 86 1014.1
20260904072016 66 129 6.0 12.0 0.01 0.18 0.06 87 1014.1
20260904071510 65 134 6.0 17.0 0.01 0.18 0.06 87 1014.3
20260904071017 65 165 8.0 17.0 0.01 0.18 0.06 87 1014.1
20260904070509 65 184 9.0 14.0 0.01 0.18 0.06 88 1014.2
20260904070017 65 164 7.0 14.0 0.02 0.18 0.06 88 1014.4
20260904065509 65 148 7.0 13.0 0.02 0.19 0.06 88 1014.5
20260904065017 65 171 7.0 12.0 0.03 0.19 0.06 89 1014.7
20260904064509 65 132 6.0 11.0 0.03 0.19 0.06 89 1014.7
20260904064017 65 150 5.0 12.0 0.03 0.19 0.06 89 1014.9
20260904063509 65 133 5.0 11.0 0.03 0.19 0.06 90 1014.9
20260904063016 65 134 6.0 11.0 0.03 0.19 0.06 90 1015.1
20260904062525 65 160 4.0 9.0 0.02 0.18 0.05 90 1015.1
20260904062017 65 127 5.0 10.0 0.02 0.18 0.05 90 1015.2
20260904061509 65 140 5.0 14.0 0.02 0.18 0.05 90 1015.4
20260904061016 65 124 8.0 14.0 0.03 0.18 0.05 90 1015.4
20260904060509 65 122 5.0 14.0 0.03 0.18 0.05 90 1015.5
20260904060017 65 142 5.0 13.0 0.02 0.17 0.04 90 1015.6
20260904055509 65 140 5.0 13.0 0.02 0.17 0.04 89 1015.6
20260904055016 65 214 6.0 12.0 0.01 0.16 0.03 89 1015.8
20260904054520 65 238 6.0 13.0 0.01 0.16 0.03 89 1015.9
20260904054021 65 191 8.0 13.0 0.01 0.16 0.03 89 1016.1
20260904053510 65 167 6.0 13.0 0.01 0.16 0.03 89 1016.1
20260904053016 65 176 7.0 13.0 0.01 0.16 0.03 89 1016.3
20260904052510 65 159 7.0 12.0 0.01 0.16 0.03 89 1016.3
20260904052017 65 188 7.0 11.0 0.01 0.16 0.03 89 1016.3
20260904051510 65 121 7.0 12.0 0.02 0.16 0.03 89 1016.6
20260904051016 65 174 5.0 13.0 0.01 0.15 0.02 88 1016.6
20260904050510 65 172 5.0 13.0 0.01 0.15 0.02 88 1016.7
20260904050017 65 200 6.0 14.0 0.01 0.15 0.02 89 1016.6
20260904045509 65 122 8.0 17.0 0.01 0.15 0.02 89 1016.6
20260904045017 65 164 10.0 17.0 0.01 0.15 0.02 89 1016.6
20260904044510 65 185 6.0 12.0 0.01 0.15 0.02 90 1016.8
20260904044016 65 141 6.0 15.0 0.02 0.15 0.02 89 1016.8
20260904043509 65 152 8.0 15.0 0.02 0.15 0.02 89 1016.8
20260904043028 65 148 6.0 12.0 0.02 0.15 0.02 89 1016.8
20260904042520 65 189 6.0 12.0 0.02 0.15 0.02 89 1017.0
20260904042016 65 134 5.0 13.0 0.02 0.15 0.02 89 1016.9
20260904041520 65 194 6.0 13.0 0.01 0.14 0.01 90 1017.1
20260904041018 65 168 6.0 11.0 0.01 0.14 0.01 90 1017.0
20260904040509 65 159 7.0 11.0 0.01 0.14 0.01 90 1017.1
20260904040019 64 119 6.0 11.0 0.01 0.14 0.01 90 1017.2
20260904035510 64 125 3.0 10.0 0.01 0.14 0.01 89 1017.1
20260904035017 64 180 4.0 13.0 0.01 0.14 0.01 88 1017.3
20260904034509 65 193 7.0 13.0 0.01 0.14 0.01 87 1017.5
20260904034017 65 203 8.0 13.0 0.00 0.13 0.00 86 1017.4
20260904033509 66 218 5.0 13.0 0.00 0.13 0.00 86 1017.4
20260904033027 66 147 5.0 13.0 0.00 0.13 0.00 87 1017.4
20260904032509 66 147 7.0 13.0 0.00 0.13 0.00 87 1017.3
20260904032016 66 157 7.0 12.0 0.00 0.13 0.00 89 1017.4
20260904031520 66 191 4.0 9.0 0.00 0.13 0.00 89 1017.4
20260904031017 66 131 3.0 10.0 0.00 0.13 0.00 89 1017.4
20260904030509 66 172 4.0 10.0 0.00 0.13 0.00 89 1017.5
20260904030017 66 197 4.0 8.0 0.00 0.13 0.00 89 1017.5
20260904025509 66 148 3.0 7.0 0.00 0.13 0.13 89 1017.7
20260904025017 66 161 3.0 9.0 0.00 0.13 0.13 89 1017.7
20260904024509 65 222 4.0 9.0 0.00 0.13 0.13 89 1017.8
20260904024017 65 193 4.0 7.0 0.00 0.13 0.13 89 1017.9
20260904023509 65 160 4.0 7.0 0.00 0.13 0.13 89 1017.9
20260904023016 65 217 3.0 7.0 0.00 0.13 0.13 89 1018.0
20260904022509 65 168 3.0 7.0 0.00 0.13 0.13 89 1018.0
20260904022029 65 211 3.0 7.0 0.00 0.13 0.13 88 1018.1
20260904021521 65 138 4.0 7.0 0.00 0.13 0.13 88 1018.2
20260904021016 65 154 3.0 7.0 0.00 0.13 0.13 88 1018.4
20260904020509 65 124 2.0 5.0 0.00 0.13 0.13 88 1018.4
20260904020017 65 161 2.0 6.0 0.00 0.13 0.13 88 1018.7
20260904015514 65 194 4.0 8.0 0.00 0.13 0.13 88 1018.8
20260904015017 65 155 4.0 8.0 0.00 0.13 0.13 88 1018.7
20260904014509 65 173 3.0 6.0 0.00 0.13 0.13 88 1018.9
20260904014027 65 222 3.0 6.0 0.00 0.13 0.13 88 1019.0
20260904013509 65 167 3.0 6.0 0.00 0.13 0.13 88 1019.1
20260904013017 65 192 3.0 5.0 0.00 0.13 0.13 88 1019.2
20260904012521 65 196 3.0 7.0 0.00 0.13 0.13 88 1019.1
20260904012016 65 226 3.0 7.0 0.00 0.13 0.13 88 1019.2
20260904011510 64 200 2.0 7.0 0.00 0.13 0.13 87 1019.3
20260904011017 64 169 2.0 7.0 0.00 0.13 0.13 87 1019.2
20260904010509 64 198 3.0 6.0 0.00 0.13 0.13 87 1019.4
20260904010018 64 200 3.0 7.0 0.00 0.13 0.13 87 1019.4
20260904005520 64 150 3.0 7.0 0.00 0.13 0.13 87 1019.3
20260904005016 64 160 3.0 6.0 0.00 0.13 0.13 87 1019.4